Theta_e
305 305 305 305 305 305 305 306 307 308 310 311 313 315 317 319 321 323 323 325 326 325 325 326 325 325 326 327 327 327 326 326 326 326 326 325 326 326 326 326 326 326 326 327 327 326 326 323 319 323 326 325 324 323 321 320 317 310 306 308 310 309 310 310 309 309 308 307 306 303 297 293 291 291
304 304 304 305 305 305 305 305 305 306 307 309 310 311 313 315 318 321 322 323 324 324 324 324 324 324 325 325 326 326 326 326 326 326 326 325 325 325 325 326 325 326 326 326 327 326 326 325 321 322 325 326 324 323 322 320 319 315 308 308 311 311 310 309 308 307 306 305 302 299 296 293 291 291
304 304 304 304 304 304 304 304 305 305 306 307 308 309 310 311 313 317 319 321 323 324 324 324 324 324 324 324 325 326 326 326 326 326 326 326 326 325 324 325 325 326 326 326 327 326 326 325 323 321 324 325 324 323 323 320 320 320 314 309 311 313 311 309 308 306 304 301 299 296 294 292 291 291
304 304 304 304 304 304 304 304 304 305 305 306 306 307 308 309 311 314 316 319 320 321 323 324 324 324 324 324 324 325 326 326 326 326 326 326 326 325 324 324 324 325 325 326 327 326 326 326 324 322 323 324 324 323 323 321 320 321 318 312 309 312 312 309 308 307 304 301 298 296 294 292 291 290
304 304 304 304 304 304 304 304 304 304 305 305 305 305 306 307 309 312 314 316 317 317 319 321 322 322 324 324 324 325 325 324 325 326 326 326 326 325 325 325 324 324 324 325 327 326 326 326 324 323 322 323 324 323 323 322 320 320 320 315 310 311 312 311 309 307 305 303 299 296 293 292 291 290
304 304 303 303 303 304 304 304 304 304 304 304 304 304 304 305 307 309 312 314 315 316 316 317 319 319 321 323 325 324 324 323 323 324 325 326 326 326 326 325 325 324 324 324 325 325 325 326 325 323 323 324 323 322 323 323 320 319 320 318 313 311 312 311 310 307 305 304 300 296 293 292 290 290
304 304 303 303 303 303 304 304 304 304 304 303 303 304 304 305 306 307 309 312 314 314 315 315 316 318 319 321 322 323 324 324 323 324 324 325 326 326 326 326 326 325 324 324 324 325 325 325 325 324 323 324 324 322 323 323 321 319 319 319 316 312 312 312 311 308 306 304 301 296 293 292 290 290
304 304 304 303 303 303 303 303 303 303 303 303 303 303 304 305 305 305 307 309 309 309 310 311 312 314 315 316 318 320 323 324 325 324 325 325 326 326 326 326 326 325 325 324 323 323 324 325 325 324 323 324 324 323 322 322 321 320 319 319 317 314 313 312 311 309 307 305 300 296 293 292 290 290
303 304 303 303 303 303 302 303 303 303 303 303 303 303 303 303 303 304 304 305 305 305 307 308 308 310 311 313 315 318 320 323 324 325 325 325 325 326 326 326 326 326 325 324 322 321 322 324 325 324 323 323 324 323 323 322 321 320 319 319 317 316 314 313 311 310 308 304 299 295 293 292 290 290
302 302 303 302 302 303 303 303 303 303 303 303 303 303 303 303 303 303 304 303 303 304 305 305 306 307 308 310 313 315 317 319 322 324 325 325 325 325 325 325 325 325 325 325 323 321 321 323 324 323 322 323 323 323 323 322 321 320 320 319 318 316 314 313 312 310 308 303 297 294 294 291 290 290
299 300 300 301 301 302 302 302 302 302 303 303 303 303 303 303 303 303 303 303 303 303 303 304 305 305 306 308 310 312 314 316 320 323 323 324 324 324 324 324 325 325 324 324 323 321 320 321 322 323 322 322 323 323 323 322 321 320 320 319 319 317 315 313 312 311 308 301 295 295 294 291 289 290
299 299 299 299 299 299 300 301 301 302 302 302 303 303 303 302 302 302 302 302 302 302 303 303 303 304 305 306 308 310 312 314 318 320 321 322 322 322 323 322 323 323 322 322 321 320 319 319 320 321 321 321 323 323 323 322 321 321 320 319 319 317 315 314 312 311 307 299 295 295 293 291 291 291
298 298 298 298 298 298 298 299 299 300 300 301 301 301 301 301 301 301 301 301 302 302 302 302 303 303 304 305 307 308 310 312 315 317 318 319 321 321 321 320 321 321 320 320 319 319 319 318 318 319 319 321 322 323 323 321 321 321 320 319 319 317 315 313 312 311 305 297 295 294 292 292 293 292
298 298 298 298 298 298 298 298 298 298 298 298 299 299 300 300 300 300 300 300 300 301 301 301 302 302 303 304 305 306 308 309 311 313 315 317 318 318 317 317 319 320 319 318 318 319 319 318 317 317 319 320 321 322 323 321 320 320 320 319 319 317 315 313 312 310 302 296 294 293 292 294 294 291
297 297 297 297 297 297 298 298 298 297 297 297 297 297 298 298 299 299 299 300 300 300 300 300 300 301 302 302 303 305 306 307 309 311 313 315 316 315 314 315 317 319 319 318 316 317 318 317 316 317 318 319 320 321 322 321 320 319 319 319 318 317 315 313 312 308 300 295 294 292 292 294 294 291
296 296 296 296 296 296 296 297 297 297 297 297 297 297 297 297 297 298 298 299 299 299 300 300 300 300 300 301 302 303 305 306 307 309 311 313 315 315 313 314 316 317 317 316 314 315 316 315 315 316 317 318 318 320 320 320 319 319 319 319 318 317 315 313 312 307 299 294 293 292 293 296 294 291
295 295 295 295 295 295 296 296 296 296 296 296 296 296 296 296 296 297 297 297 298 299 299 299 299 299 299 300 300 301 303 305 307 308 310 312 314 314 313 314 315 316 315 314 313 312 314 314 313 314 317 316 317 317 317 317 317 317 318 318 317 317 315 313 312 306 298 294 293 293 296 297 294 290
294 294 294 294 294 295 295 295 295 295 295 295 295 295 295 295 296 296 296 296 297 298 298 299 299 299 299 299 299 300 303 305 306 307 309 310 311 313 313 313 314 314 314 314 312 311 313 313 312 313 315 314 314 315 315 314 314 315 316 316 315 315 314 313 310 305 298 295 294 295 297 296 292 290
294 294 294 294 294 294 294 294 294 294 294 294 295 294 295 295 295 295 295 296 296 297 298 298 299 299 299 299 299 300 302 303 305 306 307 307 307 309 311 312 312 313 313 313 311 311 312 313 312 313 314 313 311 312 312 311 312 313 313 312 312 312 311 309 307 302 297 294 295 297 297 293 290 289
293 293 293 293 293 293 293 293 293 293 293 294 294 294 294 294 294 294 294 295 295 296 296 297 298 298 298 299 299 299 300 302 304 304 304 303 303 305 309 310 310 311 311 311 310 311 312 313 313 313 312 311 310 310 309 309 310 310 309 308 308 307 306 306 303 298 295 295 297 297 294 291 289 289
293 293 293 293 293 293 293 293 293 293 293 293 293 293 293 293 293 293 294 294 294 295 295 296 296 297 297 298 298 298 299 300 300 300 300 300 301 304 308 309 309 309 310 310 310 310 311 312 312 311 309 308 308 308 308 308 308 307 306 306 304 303 303 302 298 295 295 296 296 294 292 290 289 288
292 292 292 292 292 292 292 293 292 292 292 293 293 293 292 292 293 293 293 294 294 295 295 295 296 296 296 297 297 297 298 298 298 298 298 299 301 305 307 308 309 309 309 310 310 309 309 310 310 308 305 304 305 306 306 306 306 305 304 303 302 301 301 298 295 294 296 296 294 293 292 290 288 288
291 291 291 291 291 292 292 292 292 292 292 292 292 292 292 292 292 292 292 293 293 294 294 295 295 295 296 297 297 297 297 298 298 298 298 299 302 305 307 308 309 308 308 309 309 308 308 309 308 306 304 302 302 303 303 303 303 302 302 301 300 299 298 296 294 294 295 295 293 293 292 289 288 288
290 290 290 290 290 290 290 290 291 291 291 291 291 291 291 291 291 292 292 292 293 293 294 294 295 295 295 296 297 298 298 298 298 299 300 301 303 306 307 308 309 309 309 310 310 308 308 308 306 305 306 306 302 298 298 299 300 300 300 299 298 298 296 294 294 294 294 294 294 293 292 290 289 288
290 290 289 289 289 289 289 289 290 290 290 290 290 290 290 290 291 291 291 292 292 292 293 294 295 295 295 296 297 297 298 298 298 299 301 302 303 304 306 308 309 309 309 310 311 309 307 307 305 303 303 305 302 297 294 295 295 296 297 297 297 297 295 293 294 293 293 293 294 293 292 290 288 288
289 289 289 289 289 289 289 289 289 289 289 289 289 289 290 290 290 290 291 291 292 292 293 293 294 295 295 296 297 297 298 298 298 298 299 300 301 302 304 306 308 310 310 310 311 310 307 307 305 303 301 301 299 296 294 292 292 293 294 294 295 295 294 294 294 293 292 293 293 292 291 290 288 288
289 289 289 289 289 289 289 289 289 289 289 289 289 289 289 289 289 290 290 290 291 292 292 293 293 294 295 296 296 297 297 298 298 298 298 298 299 301 303 304 306 309 310 310 310 310 308 308 306 305 303 301 297 295 294 293 292 292 292 292 293 293 293 294 293 292 292 294 293 293 292 290 288 287
289 289 289 289 289 289 289 289 289 289 289 289 289 289 289 289 289 289 289 290 290 291 291 292 292 293 294 295 296 296 297 297 297 297 297 297 298 300 302 303 305 307 310 310 310 309 309 308 308 306 305 303 299 297 296 294 292 292 291 291 292 291 292 293 293 291 292 294 294 292 291 289 288 289
288 288 288 288 288 288 288 288 288 288 288 289 289 289 289 289 289 289 289 290 290 291 291 292 292 293 294 294 295 296 296 297 297 297 297 297 298 299 300 302 303 306 309 310 310 309 308 309 308 307 304 303 302 300 297 295 293 292 292 291 291 291 291 291 291 291 293 294 293 291 291 290 291 292
288 288 288 288 288 288 288 288 288 289 289 289 289 289 289 289 289 289 289 289 290 290 291 292 292 293 293 294 295 296 296 297 297 297 297 297 298 299 300 302 304 306 308 309 309 309 308 308 308 306 303 302 301 300 299 296 293 291 291 291 291 290 290 290 292 293 293 292 291 291 292 292 292 292
288 288 288 288 288 288 288 288 288 289 289 289 289 289 289 289 289 289 289 290 290 290 291 292 292 292 293 294 295 296 296 296 297 297 297 297 298 299 300 303 304 305 307 307 307 308 308 308 307 306 303 301 299 299 299 298 294 291 291 291 291 291 291 292 293 293 292 291 292 292 293 292 292 292
288 288 288 288 288 288 288 288 289 289 289 289 289 289 289 290 290 290 290 290 290 291 291 291 292 292 293 294 295 296 296 296 297 297 297 298 299 300 301 303 304 303 303 303 303 304 304 305 305 304 303 303 301 298 298 297 295 292 291 291 292 292 292 292 292 292 292 293 293 292 292 292 292 292
287 287 288 288 288 288 288 289 289 289 289 289 290 290 290 290 290 290 290 290 291 291 291 291 292 292 293 294 295 296 296 296 296 297 297 298 299 301 303 303 302 301 301 300 300 300 300 301 301 301 301 302 301 299 298 296 293 292 292 293 293 292 292 292 292 293 293 293 292 292 292 292 292 292
287 287 288 288 288 289 289 289 289 290 290 290 291 291 291 291 291 291 291 291 291 291 291 291 292 292 293 294 295 296 296 296 297 297 297 299 300 302 303 302 301 301 300 299 298 299 299 299 299 299 299 299 298 298 298 297 294 292 293 293 293 292 292 292 293 293 293 293 292 291 291 291 290 290
287 288 288 288 288 289 289 289 289 290 290 291 291 292 292 292 292 291 291 291 291 291 291 291 292 292 293 294 295 296 296 296 297 297 298 299 300 302 303 302 300 300 299 298 297 298 298 298 298 297 296 296 295 295 296 296 294 293 293 293 293 293 292 292 293 293 292 292 291 291 289 289 289 289
287 288 288 288 288 288 289 289 289 289 290 290 291 291 292 292 292 292 292 292 292 292 292 292 292 292 293 294 295 295 296 296 297 297 298 299 300 302 302 301 300 299 298 297 297 297 297 297 297 296 294 294 294 294 293 294 294 295 294 293 292 293 292 292 292 292 291 291 291 290 289 288 288 288
287 287 287 288 288 288 288 288 289 289 289 289 290 291 292 292 293 293 293 292 292 292 292 292 292 293 293 294 294 295 296 296 297 297 298 299 300 301 301 299 298 298 297 296 296 297 297 297 297 296 295 295 294 293 292 292 293 295 295 294 292 292 292 292 291 291 291 291 291 291 290 289 288 288
287 287 287 287 287 288 288 288 288 288 289 289 289 290 291 292 293 293 293 293 292 292 293 293 293 293 294 294 294 295 295 296 296 297 298 298 299 299 299 297 297 297 296 295 295 296 296 296 296 296 296 295 294 292 292 292 292 293 295 295 293 292 292 292 291 290 290 290 290 290 290 289 287 287
286 287 287 287 287 287 287 287 288 288 288 289 289 290 291 292 293 293 293 293 293 293 293 293 294 294 294 294 295 295 296 296 296 297 297 298 298 298 297 296 295 295 295 294 295 296 296 296 296 296 296 295 294 293 292 292 291 292 294 294 294 293 293 292 290 289 289 289 289 288 288 287 287 287
286 286 286 287 287 287 287 287 287 288 288 288 289 290 291 292 293 293 294 294 294 294 294 294 295 295 295 295 295 296 296 296 296 297 297 297 297 297 296 295 294 294 294 294 294 295 295 295 296 296 295 294 293 293 293 292 291 291 292 293 293 294 293 292 290 289 288 288 288 287 287 286 286 286
286 286 286 286 286 286 286 287 287 287 288 288 289 290 291 292 292 293 294 294 294 294 294 294 295 296 296 296 296 296 296 296 296 296 297 296 296 295 294 294 294 294 294 294 293 293 294 294 294 294 294 293 293 294 293 290 289 289 290 290 291 292 292 292 291 290 288 288 287 287 286 286 286 286
286 286 286 286 286 286 286 286 286 287 287 288 289 290 291 292 292 293 294 294 294 294 295 295 295 296 296 296 297 297 296 296 295 296 295 295 294 294 294 294 294 294 293 293 291 291 292 293 293 294 294 294 294 293 291 289 287 287 288 288 289 289 290 290 290 289 288 288 288 287 287 286 286 286
286 286 286 286 286 286 286 286 286 286 287 288 289 290 290 291 292 293 294 294 294 294 295 295 295 296 296 296 296 296 296 295 295 295 294 294 293 293 293 293 293 292 291 290 289 290 291 292 294 294 293 293 292 290 288 287 287 287 287 287 287 288 288 288 288 288 287 287 288 287 287 287 287 286
285 285 285 286 286 286 286 286 286 286 287 288 288 289 290 291 292 292 293 294 294 294 294 295 295 295 295 295 295 295 295 294 294 294 294 293 293 293 292 292 291 290 289 289 289 290 291 291 292 292 291 290 290 289 288 287 287 287 286 286 287 287 287 287 287 287 287 287 287 287 287 287 287 287
285 285 285 286 286 286 286 286 286 286 287 287 288 289 290 290 291 292 292 293 293 294 294 294 294 294 294 294 294 294 294 294 294 293 293 293 292 292 291 290 289 289 289 289 289 289 290 290 290 290 289 288 288 288 288 287 287 287 286 286 286 286 287 287 287 287 287 287 287 287 287 287 287 286
Wind_Speed
12 12 13 12 12 12 12 12 11 11 11 11 11 12 12 11 8 6 6 5 6 11 13 15 18 18 18 21 24 24 23 23 22 22 25 28 30 30 30 31 33 34 34 34 34 34 35 36 36 37 35 33 32 30 29 27 24 24 25 25 24 21 21 21 18 17 15 13 12 11 10 10 9 10
13 13 12 12 12 13 13 13 12 12 12 12 12 12 12 12 11 9 8 8 9 13 15 16 18 19 19 19 21 23 22 22 22 21 22 24 26 27 28 29 31 33 34 35 35 35 36 37 38 38 38 36 34 33 31 29 25 24 25 26 25 23 23 22 21 19 17 16 15 14 13 12 11 11
14 14 13 13 13 13 13 13 12 12 12 12 13 13 13 13 13 13 11 9 11 15 15 16 19 22 22 21 22 23 21 20 20 21 22 24 26 27 28 29 30 31 33 35 36 35 36 38 39 39 40 39 36 35 34 31 27 25 25 26 27 26 25 24 22 20 19 18 16 15 14 13 12 11
14 15 15 15 15 15 14 14 12 12 12 12 13 13 14 13 12 14 14 9 11 18 18 19 23 25 25 25 23 24 25 24 23 23 23 24 25 27 29 30 31 32 33 35 37 37 37 39 40 40 41 41 39 38 36 33 29 27 27 27 28 28 27 26 24 22 21 20 17 16 15 14 13 12
15 16 17 18 17 17 16 15 13 13 13 13 14 14 14 14 12 13 14 11 11 18 21 19 20 22 22 25 24 24 26 27 26 25 24 24 25 26 28 29 31 32 33 35 37 38 37 39 41 41 42 42 41 39 38 35 32 30 29 29 29 29 28 27 25 23 23 21 18 17 15 13 13 12
17 18 19 20 19 18 17 16 15 15 14 14 16 16 15 15 14 12 14 14 11 16 20 20 20 20 20 22 23 24 27 29 27 27 26 26 26 27 28 29 30 30 32 34 37 39 39 39 41 42 43 43 42 40 40 38 34 31 31 31 30 30 29 29 26 24 23 22 20 17 15 13 13 12
19 19 20 20 20 19 18 18 18 17 16 16 16 17 15 15 14 12 13 14 13 14 18 18 18 18 18 19 21 24 28 30 28 27 27 26 26 27 28 29 30 30 31 34 36 39 40 41 42 43 44 45 44 42 41 40 36 33 32 32 32 31 31 30 27 24 24 23 21 17 15 13 13 12
19 19 19 20 20 20 19 21 21 19 18 18 17 16 16 15 15 14 12 13 14 15 17 18 18 18 18 19 19 21 25 29 29 28 28 27 27 28 27 28 30 30 31 33 35 38 41 43 44 44 45 46 46 43 41 41 38 35 35 34 33 33 32 30 28 25 24 23 21 18 15 14 13 12
18 19 20 21 21 21 21 21 21 20 19 19 18 17 17 16 17 17 15 15 16 16 17 21 22 20 20 22 21 19 20 24 28 28 28 28 28 28 28 28 30 31 31 33 34 34 38 44 46 46 46 47 47 45 42 42 40 38 37 36 35 34 32 31 29 26 25 23 21 18 15 13 12 12
19 19 19 20 20 20 21 21 21 21 21 20 19 18 18 17 16 17 17 17 17 16 18 21 23 22 20 21 23 20 19 21 25 27 28 28 28 28 28 29 30 31 32 34 34 32 34 41 46 47 47 47 47 46 44 43 42 41 40 38 36 35 33 32 30 27 25 24 20 17 15 13 12 11
21 21 21 20 20 20 20 21 21 21 21 20 20 19 18 17 16 17 18 19 17 16 17 20 22 22 19 18 22 24 20 20 21 23 24 26 27 28 28 30 31 31 32 32 33 31 30 36 43 47 47 47 47 46 46 45 43 42 41 39 38 36 35 33 31 28 26 24 21 18 15 13 12 11
21 22 23 23 23 23 22 22 22 22 21 21 22 21 20 20 21 20 20 20 19 18 18 19 21 22 20 17 19 23 22 17 17 19 21 23 26 28 28 29 30 30 30 30 31 30 29 32 40 45 46 47 47 47 46 47 46 43 41 40 39 37 36 34 32 30 27 23 20 18 16 15 13 12
22 22 23 24 24 24 24 23 23 23 23 24 25 25 24 24 24 24 22 21 20 19 18 18 20 20 19 17 16 19 19 16 16 19 20 21 26 27 25 26 28 28 28 28 28 29 30 32 37 41 45 47 48 47 47 48 48 45 41 40 39 38 37 35 32 30 26 23 20 18 17 16 14 12
24 23 24 24 24 24 24 24 24 25 25 26 27 27 28 27 26 26 24 23 21 20 18 18 19 18 18 18 16 17 20 20 20 21 20 19 22 20 17 20 25 27 28 27 27 30 30 30 33 38 44 47 47 47 49 50 49 46 42 40 39 38 37 35 32 30 26 22 21 19 18 17 14 12
24 24 24 24 24 25 25 25 26 26 27 27 27 28 28 28 28 27 26 25 23 21 20 20 20 19 19 20 19 19 20 21 21 21 20 19 19 15 12 12 17 23 27 28 27 29 30 30 32 37 42 45 45 47 50 51 49 47 44 41 40 39 38 35 33 30 26 23 21 20 18 16 14 12
26 26 26 26 26 26 26 27 27 27 28 28 28 29 29 29 29 29 29 29 27 24 22 22 22 22 22 23 23 20 20 21 22 22 20 19 18 17 15 13 15 20 22 24 25 26 27 29 31 36 40 42 43 45 47 49 48 47 45 43 42 40 38 36 34 30 26 24 22 20 18 16 13 11
27 27 28 28 28 27 26 26 27 27 28 29 29 30 30 30 30 30 31 31 31 30 28 26 26 26 24 24 26 23 19 20 21 21 20 19 19 19 19 19 21 20 17 18 21 21 24 26 27 32 36 37 39 42 42 44 46 45 45 44 42 40 39 37 35 32 28 25 24 21 19 16 12 11
28 28 28 29 29 28 27 27 26 27 28 28 29 30 30 30 30 30 30 30 30 32 33 32 32 32 29 28 28 25 21 20 21 21 20 19 19 21 22 24 25 23 20 18 16 16 21 24 24 28 33 32 34 38 38 39 40 41 43 43 42 41 40 38 36 32 28 26 24 21 18 14 11 11
29 29 29 30 30 29 29 28 27 27 27 28 29 30 30 30 30 31 30 29 29 30 32 33 35 35 33 32 30 28 25 23 23 21 20 20 21 22 24 24 25 25 25 21 15 13 18 22 22 26 30 29 29 32 33 34 36 39 40 40 40 40 40 37 34 30 28 25 23 19 16 13 11 11
30 29 29 30 31 31 30 29 27 27 27 28 30 30 31 31 31 33 32 30 31 31 32 33 34 34 34 33 32 30 28 25 24 24 25 26 25 22 20 21 22 24 24 22 20 16 17 20 23 24 26 26 27 29 30 30 32 35 36 36 37 37 36 34 31 28 26 24 21 18 15 12 10 11
29 29 29 29 30 31 30 29 28 27 27 29 30 30 30 30 31 33 32 31 31 32 32 34 35 35 36 35 35 35 34 32 30 29 30 29 24 19 15 14 17 22 24 24 23 21 18 21 22 21 20 22 24 27 28 29 29 30 31 32 32 32 32 31 28 27 25 22 19 17 15 12 12 13
28 28 28 27 28 30 30 29 28 27 27 29 30 29 30 31 32 32 31 31 31 31 31 32 32 33 35 36 37 37 37 36 33 31 32 29 24 21 17 14 16 20 24 27 26 21 18 20 21 18 14 15 20 24 26 27 27 27 27 28 28 29 29 29 27 25 22 20 19 17 14 13 13 13
28 27 28 27 28 29 30 30 30 30 30 32 32 30 30 32 33 32 31 33 33 32 31 32 32 33 33 34 36 37 36 35 33 34 36 34 28 24 22 20 16 12 17 27 29 24 20 21 22 20 12 6 12 20 23 24 25 25 25 26 25 26 27 27 26 24 21 19 19 18 14 13 14 14
29 29 31 31 31 31 32 32 33 33 33 34 34 33 33 34 33 31 31 32 32 33 33 33 33 34 33 33 33 34 34 33 32 33 34 34 31 27 24 24 21 16 16 23 28 28 24 21 23 24 18 7 5 11 18 21 23 23 24 25 25 25 26 28 26 23 20 19 20 19 16 15 15 15
31 32 32 33 32 31 32 32 33 34 34 35 36 37 37 37 35 33 33 33 34 35 35 34 33 32 32 31 32 32 33 33 32 30 30 31 32 30 27 25 24 24 24 24 26 28 26 22 23 24 21 13 6 8 12 15 18 20 22 23 25 26 28 29 27 23 21 20 21 21 18 17 16 15
32 32 32 33 33 32 33 33 34 35 36 36 37 38 38 37 36 35 35 34 33 33 32 31 30 30 30 30 30 31 32 32 32 31 31 31 32 33 32 29 26 27 27 28 30 31 28 26 26 25 22 16 10 9 11 11 13 18 19 21 24 25 28 30 27 24 22 22 23 21 18 17 16 14
35 35 35 36 35 35 35 36 36 37 37 37 38 39 39 38 38 37 37 35 33 32 31 30 30 30 29 29 29 30 31 30 30 30 30 30 31 32 33 33 32 31 31 31 33 33 31 29 29 28 27 22 14 10 9 10 13 18 21 21 23 25 27 30 29 25 23 23 23 22 19 16 14 12
36 36 36 36 37 37 38 39 39 39 40 40 40 41 41 40 39 38 37 35 33 32 32 31 30 30 29 29 30 30 30 30 30 30 30 30 30 31 32 33 32 31 33 34 33 33 34 33 31 31 31 28 21 15 11 11 15 22 23 21 22 24 26 28 28 26 23 23 22 20 16 13 12 11
35 37 38 39 40 40 40 40 40 40 40 41 42 43 42 41 40 38 36 34 33 32 31 29 29 29 31 31 31 29 29 28 28 29 29 29 30 30 30 31 31 30 32 36 35 33 33 35 34 32 31 30 27 22 17 15 17 23 25 23 21 21 23 25 26 25 23 21 19 16 13 12 12 11
35 36 37 37 38 38 38 39 39 39 39 39 40 40 40 39 39 37 36 35 34 33 31 29 30 32 32 32 31 29 28 28 28 28 28 28 28 28 27 28 28 28 30 33 35 33 32 34 36 33 30 28 26 24 22 19 19 22 24 24 22 20 21 23 22 21 20 18 16 15 14 13 10 8
33 34 35 36 37 38 39 39 39 40 39 39 39 39 38 38 38 37 37 37 36 35 33 32 34 36 34 31 30 29 29 29 29 29 28 28 27 26 25 24 25 25 25 27 29 30 32 34 35 33 31 28 24 22 22 21 22 24 23 24 24 23 22 23 20 18 19 19 18 17 13 10 8 7
34 34 34 35 35 36 36 35 35 35 35 35 36 36 37 36 37 37 37 37 37 37 36 35 35 34 31 30 29 29 28 28 29 29 28 27 26 25 23 22 20 19 18 20 23 27 30 32 33 32 31 29 26 24 21 20 23 27 26 24 24 23 24 25 23 22 22 21 18 14 10 9 9 9
32 31 30 30 30 29 29 28 28 28 28 30 31 33 34 34 34 35 34 34 36 36 35 34 32 30 29 28 28 27 27 27 28 28 28 27 26 24 24 23 21 21 21 20 22 25 26 27 27 27 26 25 25 26 25 21 22 26 29 27 26 26 26 26 25 24 22 19 15 12 11 10 10 10
28 27 26 25 24 24 24 23 23 24 24 25 26 28 30 31 32 33 33 34 35 34 33 32 31 28 27 26 26 26 25 25 26 27 28 27 25 25 24 22 21 24 25 24 25 27 27 27 26 24 22 22 21 22 24 25 26 27 28 29 30 29 26 25 25 24 20 18 16 16 16 15 14 14
25 23 23 22 22 22 22 21 22 23 23 23 24 25 26 27 29 30 31 32 32 31 30 30 29 28 27 25 25 25 24 24 25 26 26 26 26 26 26 23 22 24 26 27 29 31 32 33 32 28 24 21 19 14 15 25 32 32 27 26 27 28 27 25 24 22 18 17 19 21 21 20 17 15
22 21 20 20 21 21 21 21 22 23 23 23 23 23 23 23 25 27 29 30 29 29 28 28 27 27 26 25 25 25 25 24 24 24 24 25 26 26 25 24 24 25 27 29 31 34 36 37 37 31 20 14 12 9 8 19 32 34 31 28 26 26 27 25 21 19 19 21 23 24 23 21 18 16
20 20 21 21 21 22 22 22 23 24 23 23 24 23 23 23 24 25 27 27 27 28 28 27 26 26 26 26 25 25 25 24 23 22 22 23 24 23 21 21 23 25 26 28 31 35 36 34 35 31 20 10 7 7 8 16 25 29 30 30 28 26 26 24 21 21 22 24 24 23 21 20 19 17
20 21 21 21 22 23 23 23 24 24 24 24 24 23 23 23 23 24 25 24 25 26 26 26 26 25 25 25 25 24 23 23 22 21 21 21 22 21 20 20 21 23 25 26 29 31 32 31 31 31 24 15 9 8 10 15 20 22 24 27 29 27 25 24 24 23 23 23 22 20 20 20 20 18
21 21 22 22 23 24 24 24 24 24 24 24 24 23 23 22 22 22 22 23 24 25 25 24 25 25 25 25 25 24 23 22 20 19 19 21 21 21 22 22 23 23 24 25 25 26 27 26 25 25 24 20 17 19 23 23 22 22 21 22 25 26 26 25 25 24 24 24 23 22 21 21 19 17
23 23 23 23 24 25 25 24 24 24 24 24 24 23 22 22 21 20 20 22 23 24 24 23 24 24 25 25 25 23 21 20 20 19 20 20 20 21 22 22 23 24 23 22 22 23 23 23 22 23 25 26 28 33 36 31 24 23 22 21 22 25 27 27 28 28 27 27 27 26 24 21 19 17
24 24 24 24 25 25 25 25 25 25 24 24 24 23 21 19 19 19 19 20 21 23 24 23 23 22 22 22 22 21 19 18 19 20 21 21 21 23 26 25 23 23 22 19 19 20 22 23 25 27 32 38 40 38 30 21 18 19 21 20 21 24 26 28 30 31 30 29 29 27 23 20 19 16
24 24 25 25 26 26 26 26 25 25 24 24 23 21 19 17 15 14 14 15 18 22 24 23 23 22 20 19 20 20 20 20 21 22 23 24 25 26 28 27 26 25 23 20 21 26 29 29 31 35 39 42 40 31 18 13 16 21 22 21 20 22 25 28 29 29 29 28 26 24 22 19 15 13
25 25 25 26 26 26 26 26 26 25 24 23 22 20 17 15 12 9 7 7 10 17 21 21 21 21 20 19 20 21 22 23 24 24 25 27 29 27 25 25 26 26 27 27 29 34 37 35 36 39 38 34 32 28 22 20 23 25 26 26 25 24 25 25 26 26 25 22 20 19 19 16 12 11
26 26 26 26 27 26 27 27 26 26 24 22 21 19 16 13 10 6 2 1 6 11 15 18 19 20 20 21 22 22 22 23 25 26 26 27 29 29 28 29 30 30 32 34 33 33 34 34 35 36 32 29 30 32 29 26 26 27 28 30 31 30 29 27 25 24 21 18 14 12 12 12 11 12
27 27 27 27 27 27 27 27 26 25 24 22 21 19 16 13 10 7 5 7 11 14 17 19 20 21 22 24 23 23 24 25 26 27 27 27 28 30 31 33 33 32 32 34 34 31 30 31 32 32 31 30 31 33 32 30 30 30 30 31 31 30 29 28 26 23 21 18 14 12 12 12 13 13
Wind_Direction
335 335 333 330 330 330 327 319 312 308 307 309 313 313 311 310 305 298 293 277 275 286 287 286 289 289 282 278 278 278 273 267 264 268 272 269 268 268 266 264 260 252 243 235 232 231 228 228 228 226 223 221 222 225 230 233 232 228 225 225 229 226 221 224 224 218 217 216 220 239 268 282 283 279
330 331 329 325 324 326 326 321 314 309 305 303 304 306 308 309 305 300 296 287 281 284 282 278 284 292 291 287 286 284 280 277 275 274 275 273 272 272 271 269 264 256 248 239 234 232 230 228 228 226 224 223 224 226 229 232 233 233 230 226 228 229 225 226 228 226 223 226 238 256 271 277 277 275
328 328 327 325 324 324 323 320 318 317 313 310 307 306 306 309 308 304 299 290 287 287 282 278 284 291 293 290 286 282 277 278 279 279 278 277 276 272 269 269 266 260 253 242 235 233 231 229 228 227 225 225 226 226 228 230 233 236 235 228 226 229 229 228 230 230 230 237 250 261 269 272 273 271
325 326 326 325 323 323 323 321 322 323 321 319 315 312 310 310 311 309 301 293 291 293 293 293 291 291 292 291 285 277 273 274 274 273 274 277 278 273 268 266 265 262 257 246 238 235 232 230 229 228 226 226 226 226 227 229 233 237 237 232 227 228 229 230 231 232 234 243 253 260 266 270 269 267
322 323 323 322 321 321 319 319 321 320 318 318 315 314 314 310 310 311 304 298 295 294 297 301 301 301 298 290 282 275 274 276 275 271 269 270 273 273 271 269 266 263 258 249 240 236 235 232 230 228 227 227 226 226 226 227 232 237 237 233 228 228 229 230 231 232 236 244 253 259 263 264 264 264
318 318 318 318 319 318 315 314 316 315 312 314 314 313 314 310 307 308 303 299 296 295 297 300 304 309 304 290 282 277 276 279 279 275 271 269 267 269 271 271 269 266 260 252 244 239 237 235 232 229 228 227 226 227 226 226 229 234 235 234 231 229 229 230 231 231 236 245 252 256 260 261 260 259
313 312 313 314 315 314 311 310 310 310 308 308 309 308 310 309 304 306 305 301 302 302 301 303 307 311 312 302 294 287 281 279 279 277 275 272 268 266 267 269 270 268 263 257 249 242 238 236 234 231 228 227 227 227 227 226 228 231 234 234 232 230 230 230 230 230 235 244 250 254 257 257 256 255
310 307 307 310 311 308 305 305 305 305 304 305 305 303 303 304 302 304 304 301 308 311 304 303 304 306 310 308 306 303 291 280 275 275 275 273 269 265 264 266 268 268 266 261 254 246 240 237 234 231 229 227 227 227 226 225 226 229 233 233 232 230 230 230 230 230 233 242 249 252 253 252 253 254
306 303 303 304 304 302 300 300 300 300 301 301 300 296 296 295 295 298 298 299 304 305 299 297 297 298 301 301 302 310 308 293 281 276 274 271 267 264 261 261 263 264 265 262 258 250 242 237 233 231 230 228 227 227 226 225 226 228 231 232 232 231 230 231 231 229 232 240 245 248 248 248 251 253
300 300 300 299 298 297 296 295 295 296 297 296 295 294 293 292 292 292 296 300 300 296 294 294 294 293 295 296 294 298 312 311 292 277 271 268 264 262 260 259 259 260 261 262 261 254 244 238 233 230 229 229 228 228 226 225 226 228 230 231 232 232 232 232 231 229 232 236 237 240 246 247 247 249
297 296 296 295 293 292 291 291 292 292 292 291 290 290 290 290 290 290 291 294 294 294 294 293 292 292 291 291 289 289 302 315 300 276 264 263 264 262 260 259 258 256 257 259 260 256 248 241 235 230 229 229 229 228 227 226 227 228 229 230 232 232 232 231 229 228 230 230 233 239 243 240 240 246
296 295 295 294 292 291 288 286 286 286 287 288 286 285 285 287 288 288 287 286 284 286 288 288 290 293 291 288 287 287 294 307 301 282 268 262 264 264 262 261 259 256 254 255 255 252 246 241 236 230 228 228 228 228 228 228 228 229 230 230 231 232 231 229 227 227 227 228 233 237 232 231 238 246
294 294 294 293 293 292 289 285 284 282 282 283 283 282 283 284 285 285 284 281 279 278 279 280 284 289 289 288 288 286 287 290 293 295 289 274 267 265 262 260 258 256 254 253 252 251 246 240 234 229 226 227 226 225 226 227 227 228 229 229 230 231 230 228 226 226 225 226 229 228 226 232 240 244
293 293 292 292 291 290 287 285 284 283 283 282 281 280 280 279 280 280 278 277 276 274 272 271 275 280 282 283 284 281 281 283 286 293 297 289 277 268 258 257 258 255 253 250 249 249 246 239 232 227 227 227 225 223 224 226 226 226 226 227 228 229 228 226 225 224 223 223 224 223 226 235 237 233
295 294 292 291 290 287 286 284 283 283 284 283 282 280 278 276 275 274 274 273 272 271 269 267 268 268 272 277 279 279 281 283 283 286 290 290 284 271 253 254 260 258 252 246 244 247 245 236 230 228 228 228 226 225 226 226 225 224 224 225 226 226 226 224 223 222 220 220 221 221 226 233 231 229
296 294 292 290 287 285 284 283 282 281 281 281 281 280 278 276 273 271 270 270 269 267 266 267 265 262 266 272 272 273 278 281 282 285 285 284 281 270 256 249 258 264 258 243 238 244 245 237 229 228 229 229 228 228 227 227 226 224 224 225 225 224 223 222 222 220 216 216 218 220 227 231 227 228
294 292 290 288 285 283 281 279 279 278 279 280 280 279 278 276 274 271 268 267 267 265 264 264 263 262 262 265 267 268 271 275 279 280 279 279 277 268 260 257 258 265 266 245 233 239 244 239 231 229 232 231 231 231 230 228 226 225 225 225 224 222 221 220 220 218 214 214 216 221 228 229 221 224
292 289 288 285 283 282 280 278 277 277 278 279 278 277 277 275 274 273 270 267 266 265 262 260 261 263 261 261 265 265 264 269 276 278 278 278 276 269 267 267 263 261 264 254 237 234 242 240 233 233 235 234 234 235 234 230 227 226 225 224 222 220 219 218 217 215 213 213 216 221 226 223 215 219
291 289 287 285 283 282 280 278 277 276 276 276 276 275 275 274 274 272 269 267 265 263 261 260 260 262 262 261 263 263 262 264 265 267 273 278 283 281 273 266 259 255 257 252 233 230 243 240 236 238 239 238 237 237 237 233 229 228 227 224 220 218 216 215 215 213 211 211 215 219 220 213 209 217
290 289 286 284 283 281 279 278 277 276 275 275 274 274 274 275 275 272 270 268 265 263 262 261 261 262 263 262 262 262 260 257 256 265 275 279 284 285 271 256 249 247 248 242 226 225 240 240 237 240 241 238 237 238 237 234 231 229 226 224 221 217 214 214 211 208 209 211 213 214 208 201 206 214
289 288 286 284 282 280 279 279 278 277 276 273 271 272 274 275 274 273 273 272 268 265 265 264 263 263 263 263 263 262 261 260 262 269 274 273 273 270 259 248 243 240 240 235 224 220 231 238 234 232 235 237 237 238 239 236 232 229 227 226 223 218 214 211 207 206 209 210 207 201 194 194 205 209
290 288 287 284 281 279 278 278 278 277 275 272 270 271 274 275 272 272 275 275 272 270 268 267 265 264 263 262 261 261 261 261 261 259 259 261 260 254 247 243 242 240 238 233 223 215 224 233 226 216 218 233 237 237 239 237 233 229 227 226 223 219 214 208 204 204 206 203 198 192 187 193 201 203
291 289 288 285 282 280 279 278 277 276 274 271 271 271 273 273 271 271 273 273 273 272 270 267 266 265 264 262 259 258 257 257 257 255 254 253 249 244 240 237 235 240 238 231 222 215 219 225 217 205 196 218 239 236 235 235 233 229 226 222 219 217 212 205 202 202 201 199 194 187 186 194 198 200
293 291 289 287 285 282 281 279 277 276 272 270 271 270 269 268 269 272 273 271 272 273 271 269 267 265 264 262 257 254 252 252 254 254 249 244 241 241 240 233 228 231 238 234 225 218 219 221 215 206 202 205 223 218 221 228 229 226 225 220 216 213 207 202 201 201 201 201 195 187 188 196 198 200
292 291 290 289 288 285 282 279 277 275 273 271 271 269 266 266 268 271 272 271 271 270 268 267 266 263 261 258 253 249 247 247 248 249 246 243 243 245 244 238 232 232 236 238 231 221 216 216 211 203 202 209 201 176 192 213 221 221 222 220 215 209 203 200 201 200 197 198 194 189 192 198 200 201
290 289 288 288 287 285 283 280 278 277 275 273 271 269 267 267 268 268 269 270 269 266 264 264 262 259 256 253 249 246 244 241 241 244 247 250 250 250 249 247 243 237 234 236 234 224 215 215 211 199 193 197 193 170 167 181 203 211 213 214 214 210 203 202 201 197 194 195 194 192 194 199 202 203
288 287 287 287 287 286 284 282 280 278 276 273 270 269 268 268 267 266 266 265 264 262 261 260 259 257 253 249 247 244 241 239 239 243 249 252 252 253 253 253 253 247 239 237 235 226 218 218 217 209 201 193 176 164 166 169 185 196 199 204 209 208 206 205 201 195 195 197 193 192 196 200 201 201
288 288 289 289 289 289 287 285 282 280 277 274 272 270 269 267 265 264 261 259 257 256 254 253 252 251 249 247 244 243 242 241 243 246 250 254 254 254 254 255 258 255 244 238 236 228 221 220 220 217 211 201 185 177 177 172 177 184 186 191 199 204 206 205 200 195 196 198 194 193 196 194 188 190
290 291 291 292 291 290 288 286 283 280 277 274 272 270 268 266 263 259 256 253 252 250 248 247 246 247 247 246 244 244 244 243 243 245 249 253 255 256 256 256 260 260 248 239 236 229 222 221 223 219 211 206 199 190 179 168 169 177 178 175 181 194 201 200 196 193 191 191 189 186 180 174 176 188
295 294 294 293 292 290 288 285 282 278 275 274 272 270 267 263 258 254 250 247 245 244 244 243 243 245 246 246 245 243 241 240 240 241 244 249 253 255 255 255 257 257 247 237 234 230 223 221 222 216 204 200 200 196 186 172 160 167 175 171 166 174 186 189 188 185 179 174 170 165 165 170 183 201
299 297 296 294 292 289 287 285 281 278 275 272 270 267 264 259 254 250 247 244 242 242 242 242 243 245 245 243 240 236 234 235 238 240 242 245 248 250 249 247 244 240 233 227 226 225 220 218 218 213 201 192 189 190 190 179 162 159 169 173 168 165 171 173 168 163 163 160 157 160 168 179 192 202
303 300 298 295 293 290 287 284 281 278 274 271 268 265 262 258 254 251 248 245 243 242 241 241 243 243 241 237 233 230 230 231 235 238 239 240 243 244 239 231 222 212 205 203 204 206 208 211 211 208 203 197 189 180 174 170 166 162 162 166 167 159 156 156 152 152 157 157 155 162 173 184 193 201
306 303 299 295 292 289 285 282 280 278 275 271 268 265 262 258 254 250 246 241 240 239 238 238 239 238 235 232 229 228 228 230 233 236 236 236 238 236 227 218 206 190 179 174 178 183 188 193 193 192 193 193 188 179 168 157 157 160 157 157 156 151 150 154 156 156 158 157 157 164 169 172 181 187
309 303 298 294 291 288 286 284 283 281 279 274 271 268 264 257 251 246 242 238 238 237 235 234 235 233 230 228 226 225 226 229 233 235 235 234 233 226 217 208 197 186 175 164 162 165 167 168 167 164 164 163 162 170 172 162 152 151 153 154 153 150 153 160 161 158 159 162 161 156 151 151 155 157
308 302 299 296 294 293 291 290 289 288 285 280 277 276 270 260 250 244 240 238 236 234 233 232 232 230 227 224 223 223 223 226 231 233 233 232 228 221 212 201 188 180 171 161 158 159 157 155 148 140 136 136 131 136 162 161 153 148 146 148 153 155 156 159 159 157 161 168 164 151 141 142 146 148
309 306 304 301 301 300 297 296 296 295 292 288 287 285 278 266 253 244 241 239 235 231 229 229 227 225 224 222 222 224 224 226 229 229 229 228 223 215 207 196 185 176 168 162 160 159 156 154 149 140 131 130 127 114 129 152 156 156 150 147 152 158 157 157 159 160 163 166 164 157 149 148 151 153
313 313 311 307 307 307 304 303 303 301 298 297 296 294 286 273 261 252 248 242 234 229 228 226 223 222 221 220 222 225 226 226 227 226 226 224 216 204 193 182 175 170 165 162 162 161 158 156 153 147 139 132 131 119 116 137 152 160 157 151 151 156 158 157 157 159 163 166 168 168 162 155 151 152
318 318 317 315 314 313 311 310 308 306 305 305 305 302 296 285 271 260 251 241 232 228 226 224 222 220 219 219 220 223 224 224 224 224 220 212 201 188 175 165 161 160 158 157 160 162 162 161 158 154 148 142 139 140 138 138 145 154 158 155 153 156 160 160 157 157 163 167 168 167 161 151 147 149
326 324 322 319 319 319 317 316 314 312 311 312 310 307 305 300 286 268 251 238 232 227 223 222 221 220 220 220 219 219 219 217 216 215 208 198 188 176 164 156 153 151 149 149 154 160 161 160 160 158 152 145 144 148 144 139 140 150 159 162 160 161 163 162 158 157 159 160 156 150 144 142 142 145
330 328 327 325 325 325 323 322 321 319 318 318 316 314 312 307 296 280 260 242 232 225 220 220 219 217 218 219 216 212 211 208 205 199 191 182 174 163 154 148 146 145 143 143 147 151 153 154 157 155 144 134 133 137 135 130 131 142 153 163 169 170 169 167 162 157 153 152 149 143 139 140 141 143
332 331 332 332 332 331 330 329 327 326 325 325 325 323 319 311 300 289 273 252 236 224 217 216 215 212 210 209 204 198 193 189 186 181 172 163 154 148 143 139 138 139 138 136 135 136 138 144 149 146 137 131 131 132 129 122 121 129 139 152 166 170 171 172 170 162 156 153 148 141 138 142 144 142
337 336 337 338 338 337 336 335 334 333 333 333 333 331 327 319 307 295 284 264 241 225 216 213 212 210 206 202 197 191 183 175 169 165 158 148 141 140 141 141 141 141 138 133 129 128 129 135 140 137 135 135 135 131 125 121 122 122 126 137 152 161 166 169 169 163 158 157 153 146 142 143 140 137
342 340 341 342 342 342 341 341 341 341 340 340 342 341 338 333 325 312 298 273 235 219 211 205 202 201 198 195 191 185 176 167 161 155 149 144 141 140 139 139 138 136 131 126 126 128 130 134 137 135 134 135 134 128 122 123 124 122 122 126 131 139 147 151 153 152 151 153 156 156 155 154 151 148
346 345 346 347 347 346 347 348 348 348 348 349 351 352 352 352 354 352 347 143 164 178 182 181 179 180 177 174 173 169 162 157 153 147 143 142 141 139 136 133 130 129 127 126 126 128 130 133 135 134 132 131 130 127 125 125 125 123 122 123 123 125 128 131 135 138 137 137 141 148 152 150 143 141
350 349 350 351 351 351 353 354 354 355 357 359 0 2 5 10 20 37 75 113 128 138 146 151 153 155 156 156 155 150 145 144 144 140 138 137 137 135 134 132 129 128 129 129 128 127 128 129 130 130 128 127 129 129 128 127 126 124 122 122 121 122 125 127 129 127 122 118 120 126 130 129 126 129